This demonstration page uses our WeatherBlox Daily Observations layout. Learn more.

Left ArrowRight Arrow

Hourly Observations for October 9, 2019

Temp ( °F °C ) Dew Point ( °F °C ) Humidity (%) Winds ( mph kmh ) Pressure ( in mb ) Visibility ( mi km ) Precip ( " mm )
12:53 am 00:53 Clear 45 7.2 43 6.1 93 93 W 3 6 30.17 1022 10 16 0.00 0.00
1:53 am 01:53 Clear 44 6.7 43 6.1 96 96 Calm 30.16 1021 10 16 0.00 0.00
2:53 am 02:53 Clear 44 6.7 43 6.1 96 96 W 3 6 30.16 1021 10 16 0.00 0.00
3:53 am 03:53 Clear 43 6.1 42 5.6 97 97 Calm 30.15 1021 10 16 0.00 0.00
4:53 am 04:53 Clear 43 6.1 42 5.6 97 97 Calm 30.16 1021 10 16 0.00 0.00
5:53 am 05:53 Clear 43 6.1 43 6.1 100 100 Calm 30.17 1022 10 16 0.00 0.00
6:53 am 06:53 Clear 42 5.6 41 5 96 96 Calm 30.19 1022 7 11 0.00 0.00
7:53 am 07:53 Sunny with Mist and Fog 42 5.6 41 5 96 96 Calm 30.21 1023 6 10 0.00 0.00
8:53 am 08:53 Sunny 49 9.4 47 8.3 93 93 Calm 30.22 1023 9 14 0.00 0.00
9:53 am 09:53 Sunny 57 13.9 47 8.3 69 69 E 3 6 30.22 1024 10 16 0.00 0.00
10:53 am 10:53 Sunny 63 17.2 49 9.4 60 60 ENE 6 9 30.22 1023 10 16 0.00 0.00
11:53 am 11:53 Sunny 68 20 48 8.9 49 49 ENE 8 13 30.19 1023 10 16 0.00 0.00
12:53 pm 12:53 Sunny 72 22.2 49 9.4 44 44 ENE 6 9 30.18 1022 10 16 0.00 0.00
1:53 pm 13:53 Sunny 74 23.3 51 10.6 45 45 ENE 9 15 30.15 1021 10 16 0.00 0.00
2:53 pm 14:53 Sunny 74 23.3 52 11.1 46 46 ESE 8 13 30.13 1020 10 16 0.00 0.00
3:53 pm 15:53 Sunny 75 23.9 52 11.1 45 45 Calm 30.12 1020 10 16 0.00 0.00
4:53 pm 16:53 Sunny 76 24.4 54 12.2 47 47 VRB 6 9 30.09 1019 10 16 0.00 0.00
5:53 pm 17:53 Sunny 75 23.9 54 12.2 48 48 Calm 30.10 1019 10 16 0.00 0.00
6:53 pm 18:53 Sunny 68 20 56 13.3 65 65 E 3 6 30.10 1019 10 16 0.00 0.00
7:53 pm 19:53 Clear 60 15.6 56 13.3 86 86 Calm 30.12 1020 10 16 0.00 0.00
8:53 pm 20:53 Clear 57 13.9 55 12.8 93 93 Calm 30.14 1021 10 16 0.00 0.00
9:53 pm 21:53 Clear 56 13.3 53 11.7 90 90 Calm 30.14 1021 10 16 0.00 0.00
10:53 pm 22:53 Clear 56 13.3 54 12.2 93 93 Calm 30.14 1021 10 16 0.00 0.00
11:53 pm 23:53 Clear 54 12.2 52 11.1 93 93 Calm 30.15 1021 10 16 0.00 0.00

Powered by AerisWeather